Location: Bukit Setapoh
(2.2500°N, 113.8000°E)
Time: 22:56:35
(UTC+00:00)

deb Centaur AC-2 - Pass Details

Date: 25 July 2021
Orbit: 585 x 1363 km, 30.0° (Epoch: 18 September)

Event Time Altitude Azimuth Distance (km) Brightness Sun altitude
Rises 11:42:52 0° 234° (SW) 2,793 7.9 -16.0°
Reaches altitude 10° 11:45:06 10° 232° (SW) 1,900 7.0 -16.5°
Maximum altitude 11:49:24 71° 148° (SSE) 648 3.9 -17.5°
Enters shadow 11:51:53 27° 69° (ENE) 1,236 5.2 -18.1°
